User: anonymous   Login
Location: Unspecified
(0.0000°N, 0.0000°E)
Time: 18:47:42
(UTC+00:00)
Language:

APRIZESAT 1 (LATINSAT C) - Orbit

View from above orbital plane
View from above orbital plane
View from above satellite
View from above satellite

Ground track
Ground track

The orbit data is extracted from the following two-line orbital elements,

1 28372U 04025G   17145.85625152 -.00000009 +00000-0 +92099-5 0  9999
2 28372 098.2532 094.3158 0046832 157.1437 203.1855 14.49494444682281
Epoch (UTC): 25 May 2017 20:33:00
Eccentricity: 0.0046832
inclination: 98.2532°
perigee height: 694 km
apogee height: 760 km
right ascension of ascending node: 94.3158°
argument of perigee: 157.1437°
revolutions per day: 14.49494444
mean anomaly at epoch: 203.1855°
orbit number at epoch: 68228

The dashed part of the orbit path shows where the satellite is in the earth's shadow,  

DLR